Location: Fairview
(33.1579°N, 96.6317°W)
Time: 01:58:59
(UTC+00:00)

Daily predictions for brighter satellites

Satellite Brightness Start Highest point End
(mag) Time Altitude Azimuth Time Altitude Azimuth Time Altitude Azimuth
S3M 4.4 01:38:45 10° SSE 01:44:43 44° E 01:50:40 10° NNE
X-37B 3.1 01:48:34 10° NNW 01:50:35 15° NNE 01:52:36 10° NE
Delta 2 Rocket 3.8 01:51:24 10° WSW 01:56:48 77° SSE 02:01:38 10° ENE
Geosat 4.2 01:53:06 10° SSE 01:58:06 76° WSW 02:03:09 10° NNW
OBJECT-B 1.7 01:56:01 10° SE 01:58:56 32° ENE 02:01:52 10° N
ARGOS 4.3 01:54:44 10° S 01:59:50 45° W 02:04:57 10° NNW
Cosmos 1553 Rocket 4.0 01:54:02 10° S 02:00:09 89° W 02:06:24 10° N
Cosmos 1805 Rocket 4.0 01:57:28 10° N 02:01:38 42° E 02:05:47 10° SSE
Cosmos 1437 Rocket 3.1 01:57:51 10° SSW 02:01:41 70° W 02:05:38 10° N
ERS-2 2.2 01:59:09 10° N 02:02:46 78° WNW 02:06:23 10° SSW
USA 267 3.3 02:03:11 10° SE 02:09:45 87° NE 02:16:21 10° NW
Cosmos 1606 4.1 02:06:16 10° SSW 02:09:50 41° W 02:13:26 10° N
ISS -2.4 02:09:33 10° S 02:12:02 19° SE 02:13:27 15° E
Helios 1A Rocket 3.1 02:08:28 10° S 02:12:34 75° WSW 02:16:44 10° NNW
Cosmos 1777 Rocket 4.4 02:09:17 10° SSE 02:14:04 39° ESE 02:18:53 10° NE
Cosmos 1503 Rocket 4.4 02:10:48 10° SSW 02:15:55 69° WNW 02:21:07 10° NNE
CZ-4 R/B 4.2 02:14:05 10° SW 02:16:38 16° W 02:19:10 10° NW
Cosmos 1743 Rocket 4.1 02:12:30 10° NNW 02:16:48 60° W 02:21:06 10° S
USA 290 2.4 02:14:42 10° N 02:17:51 50° ENE 02:19:47 20° SE
Meteor 1-26 Rocket 4.4 02:13:45 10° SSE 02:19:15 51° E 02:24:37 10° NNE
Ariane Rocket 3.4 02:16:50 14° SE 02:20:50 45° ENE 02:25:38 10° N
MOS 1-B Rocket 4.1 02:15:15 10° NNE 02:22:10 89° ESE 02:28:07 10° SSW
Cosmos 1437 3.3 02:25:45 27° ESE 02:26:01 28° E 02:28:30 10° NNE
Tianhe-1 1.2 02:23:26 10° SW 02:26:27 48° SSE 02:28:15 21° E
Cosmos 1933 3.4 02:23:28 10° S 02:27:30 78° W 02:31:32 10° N
Resurs 1-3 3.9 02:27:17 20° SE 02:30:05 48° ENE 02:34:18 10° N
OAO 3 Rocket 3.3 02:26:29 10° SW 02:30:58 50° SSE 02:34:13 18° E
Cosmos 1782 2.8 02:29:42 12° S 02:33:21 59° E 02:37:17 10° NNE
DELTA 2 R/B (1) 3.5 02:29:23 10° WNW 02:34:58 84° SSW 02:38:23 24° ESE
Cosmos 1666 Rocket 3.9 02:32:25 10° N 02:36:38 46° E 02:38:36 27° SE
Cosmos 1812 3.8 02:37:33 25° E 02:37:43 25° E 02:40:56 10° NE
SJ 16-02 2.1 02:36:32 26° SE 02:37:47 31° E 02:41:41 10° NE
IRS-1A Rocket 4.3 02:34:19 16° SSE 02:39:02 74° ENE 02:44:54 10° N
Cosmos 2278 Rocket 2.2 02:33:31 10° S 02:39:03 60° ESE 02:44:38 10° NNE
Meteor 1-20 Rocket 4.1 02:36:11 10° N 02:41:45 84° E 02:46:07 16° S
Sich 1 3.2 02:40:08 10° N 02:44:30 75° W 02:47:56 16° S
SJ-6B 3.5 02:41:06 12° S 02:44:36 51° W 02:48:27 10° NNW
Cosmos 1151 Rocket 3.0 02:46:20 10° S 02:50:41 82° W 02:55:04 10° N
ATLAS 5 CENTAUR R/B 2.5 02:51:23 10° NNW 02:57:28 86° WSW 03:01:21 28° SSE
Meteor 2-17 Rocket 4.4 02:51:20 10° N 02:57:30 80° E 03:01:23 24° SSE
Mugunghwa Rocket 4.3 02:51:35 10° WSW 02:57:36 46° S 03:00:08 32° ESE
CZ-4C R/B 3.5 02:53:14 10° NNW 03:00:33 48° NE 03:04:45 28° ESE
IGS 5A 3.5 03:03:39 50° ESE 03:04:19 58° ENE 03:08:23 10° N
SPOT 1/Viking Rocket 4.3 03:03:30 32° E 03:04:32 35° ENE 03:09:14 10° N
Centaur D-1AR AC-36 3.5 03:09:38 10° SW 03:10:41 14° SSW 03:10:41 14° SSW
Cosmos 1500 3.2 03:13:10 10° N 03:16:32 63° NE 03:16:32 63° NE
Cosmos 1709 Rocket 4.1 03:11:50 10° N 03:17:55 74° W 03:21:27 27° S
SPOT 3 Rocket 3.4 03:18:18 47° SSE 03:19:51 87° ENE 03:25:01 10° NNW
Cosmos 2228 Rocket 4.4 03:21:24 27° ENE 03:21:24 27° ENE 03:24:00 10° NNE
Resurs 01 Rocket 1.6 03:19:13 52° S 03:20:16 77° W 03:24:43 10° NNW
Cosmos 1833 Rocket 2.9 03:15:05 10° N 03:20:37 53° ENE 03:21:40 46° ESE
CZ-2C R/B 3.7 03:16:56 10° N 03:21:28 83° WNW 03:23:09 39° SSW
GPS 2-04 Rocket1 3.0 03:18:48 10° WNW 03:22:54 60° N 03:23:21 56° NE
Cosmos 2184 Rocket 4.4 03:19:32 10° N 03:25:21 41° E 03:26:01 40° E
Cosmos 773 Rocket 4.0 03:20:37 10° NNW 03:25:54 78° WSW 03:27:15 51° S
Cosmos 2074 Rocket 4.3 03:21:17 10° N 03:27:19 46° E 03:28:08 43° ESE
X-37B 2.0 03:24:26 10° NW 03:26:35 39° NW 03:26:35 39° NW
Spot 2 Rocket 3.9 03:28:09 43° ENE 03:28:15 43° ENE 03:33:00 10° N
ERS-1 Rocket 4.1 03:29:55 28° ENE 03:29:55 28° ENE 03:33:51 10° NNE
CRYOSAT 2 4.4 03:28:24 51° SSW 03:29:36 77° W 03:34:30 10° N
Cosmos 1538 Rocket 4.1 03:24:57 10° N 03:30:13 56° ENE 03:30:36 55° E
Cosmos 1515 Rocket 3.8 03:30:24 48° SW 03:31:24 65° W 03:35:46 10° N
Meteor 1-5 Rocket 3.9 03:28:32 10° N 03:33:50 71° E 03:34:18 67° ESE
Delta 2 Rocket 3.9 03:34:23 10° W 03:39:24 64° N 03:39:54 59° NNE
Cosmos 2297 4.4 03:42:09 38° ENE 03:42:09 38° ENE 03:46:05 10° NE
USA 307 4.5 03:39:34 10° NNW 03:42:59 27° NNE 03:42:59 27° NNE
Meteor 1-10 Rocket 4.2 03:43:16 54° SSW 03:44:36 82° W 03:50:15 10° N
Cosmos 967 Rocket 4.4 03:45:38 62° ESE 03:45:38 62° ESE 03:51:43 10° NE
Cosmos 1271 Rocket 3.6 03:46:58 50° NNW 03:46:58 50° NNW 03:50:08 10° N
ISS -1.2 03:45:40 10° WSW 03:46:50 18° W 03:46:50 18° W
Milstar 3 3.7 03:37:12 10° WSW 03:52:53 68° S 03:56:12 45° ESE
Terra 3.2 03:56:00 28° NE 03:56:00 28° NE 03:58:59 10° N
CARTOSAT-1 4.4 03:58:15 46° N 03:58:15 46° N 04:01:20 10° N
USA 308 4.4 03:53:06 10° NNW 03:56:12 31° NNE 03:56:12 31° NNE
Tianhe-1 4.4 04:00:18 10° W 04:00:19 10° W 04:00:19 10° W
Cosmos 2082 Rocket 2.4 04:00:00 10° NNW 04:05:04 61° NE 04:05:04 61° NE
ARIANE 5 R/B 3.6 04:08:41 45° NNW 04:08:41 45° NNW 04:11:45 10° NNW
SPOT 5 3.4 04:12:49 58° N 04:12:49 58° N 04:17:06 10° N
Cosmos 1898 Rocket 4.0 04:14:18 57° N 04:14:18 57° N 04:18:31 10° NNE
SJ 16-02 3.9 04:13:23 10° WSW 04:16:22 18° WNW 04:19:27 10° NNW
Cosmos 1943 Rocket 3.0 04:20:39 42° NE 04:20:39 42° NE 04:24:18 10° NNE
COSMOS 2406 3.9 04:13:42 10° NW 04:19:01 44° WSW 04:19:01 44° WSW
DNEPR-1 R/B 4.5 04:25:23 68° NW 04:25:23 68° NW 04:30:40 10° NNE
Cosmos 2369 Rocket 4.0 04:33:00 21° NE 04:33:00 21° NE 04:34:58 10° NE
CZ-4C R/B 3.9 04:42:01 10° NW 04:49:11 38° WSW 04:49:57 38° WSW
NOSS 3-4 (A) 4.1 04:47:40 10° NW 04:54:35 65° W 04:54:35 65° W
NOSS 3-4 (C) 4.1 04:47:46 10° NW 04:54:41 66° W 04:54:41 66° W
ATLAS 2AS CENTAUR R/B 3.0 05:01:12 10° NNW 05:07:07 63° NNW 05:07:07 63° NNW
Terra 4.4 05:34:53 14° WNW 05:34:53 14° WNW 05:35:56 10° NW
Cosmos 2369 Rocket 4.3 06:14:45 20° NW 06:14:45 20° NW 06:18:04 10° N
Lacrosse 5 4.3 06:27:22 18° NNE 06:27:22 18° NNE 06:28:36 10° NNE
Cosmos 2297 Rocket 4.2 07:07:43 10° N 07:11:57 21° ENE 07:12:27 21° ENE
COSMOS 2455 3.5 07:42:33 10° NNW 07:47:29 51° NNE 07:47:29 51° NNE
Cosmos 2219 4.1 07:51:22 10° N 07:56:43 44° ENE 07:56:43 44° ENE
Lacrosse 4 Rocket 3.6 08:02:37 25° NE 08:02:37 25° NE 08:04:38 10° NNE
SL-16 R/B 2.9 08:00:36 59° ENE 08:00:45 59° ENE 08:06:54 10° N
Lacrosse 5 4.4 08:06:31 11° NW 08:07:27 12° NNW 08:09:17 10° N
ADEOS II 3.2 08:02:44 10° NNE 08:06:52 38° ENE 08:06:52 38° ENE
NPP 4.2 08:09:51 10° NNE 08:14:01 55° N 08:14:01 55° N
CZ-2D R/B 2.8 08:10:31 10° N 08:14:26 48° N 08:14:26 48° N
BREEZE-M DEB (TANK) 3.8 08:19:53 43° NNW 08:20:03 43° NNW 08:29:25 10° NE
Resurs 1-4 Rocket 2.9 08:16:35 10° N 08:20:20 44° NNW 08:20:20 44° NNW
Cosmos 1697 Rocket 3.1 08:24:06 57° NNW 08:24:06 57° NNW 08:28:42 10° NNE
Cosmos 2360 4.4 08:24:06 67° N 08:24:06 67° N 08:29:02 10° NNE
USA 215 3.2 08:26:21 70° WNW 08:26:21 70° WNW 08:32:10 10° NW
Atlas Centaur 2 4.0 08:28:29 27° SE 08:28:29 27° SE 08:32:59 10° E
Cosmos 1725 Rocket 4.0 08:22:54 10° N 08:29:09 74° E 08:29:36 70° ESE
GP-B 4.4 08:27:12 10° NNE 08:30:46 37° ENE 08:30:46 37° ENE
Meteor 1-16 Rocket 4.3 08:25:49 10° N 08:31:25 80° NNE 08:31:25 80° NNE
Cosmos 1624 Rocket 4.3 08:32:24 64° ENE 08:32:24 64° ENE 08:37:07 10° NNE
Cosmos 1459 Rocket 4.4 08:27:08 10° NNW 08:32:03 49° NW 08:32:03 49° NW
USA 281 3.2 08:36:07 60° W 08:36:07 60° W 08:41:57 10° NNW
Cosmos 1980 Rocket 2.2 08:35:56 73° E 08:35:56 73° E 08:41:23 10° NNE
Cosmos 1626 4.3 08:42:30 22° N 08:42:30 22° N 08:43:55 10° N
Cosmos 2016 Rocket 3.9 08:37:02 10° N 08:43:02 71° W 08:43:02 71° W
DELTA 2 DEB (DPAF) 4.5 08:51:43 63° NE 08:51:43 63° NE 08:55:52 10° N
Cosmos 2061 Rocket 4.0 08:47:08 10° NNW 08:53:24 63° W 08:53:38 62° WSW
Cosmos 2056 Rocket 3.5 08:53:58 67° NW 08:53:58 67° NW 08:58:39 10° NNE
Cosmos 2227 Rocket 2.4 08:47:58 10° NNW 08:52:41 57° WNW 08:52:41 57° WNW
Timation 2 Rocket 3.9 08:47:51 10° NNW 08:53:11 60° W 08:53:11 60° W
Cosmos 2285 Rocket 3.9 08:55:09 67° SW 08:56:03 81° WNW 09:02:31 10° NNE
Cosmos 2297 Rocket 3.2 08:50:47 10° NW 08:54:12 33° WNW 08:54:12 33° WNW
Cosmos 2369 4.1 08:56:41 48° WNW 08:56:41 48° WNW 09:02:12 10° N
Cosmos 2278 3.5 08:57:35 76° WSW 08:57:58 81° WNW 09:03:43 10° NNE
Cosmos 1300 3.7 08:56:23 10° N 08:59:48 43° ENE 08:59:48 43° ENE
Cosmos 1023 Rocket 4.5 08:59:06 10° NNW 09:04:22 79° ENE 09:05:51 48° SSE
Cosmos 1371 Rocket 4.4 09:06:35 46° WNW 09:06:35 46° WNW 09:11:25 10° N
IRS-1C 4.5 09:03:07 10° NNE 09:08:23 59° E 09:10:04 41° SSE
OAO 2 Rocket 3.4 09:08:20 63° WNW 09:09:08 79° N 09:14:28 10° E
Cosmos 2082 3.7 09:03:36 10° NNW 09:09:20 82° ENE 09:12:48 25° SSE
SL-16 R/B 3.4 09:08:41 24° SSE 09:11:17 36° ESE 09:16:25 10° NE
MSX 4.0 09:11:03 10° NNE 09:16:49 69° ESE 09:19:16 35° S
IRS-1D 4.0 09:15:47 10° N 09:20:52 45° WNW 09:21:23 44° W
Cosmos 1140 Rocket 3.3 09:16:54 10° NNW 09:22:07 72° WSW 09:23:29 49° S
OAO 1 Rocket 4.3 09:21:59 59° SW 09:22:53 74° SSE 09:28:14 10° ENE
Cosmos 1340 3.2 09:24:28 48° NW 09:24:28 48° NW 09:27:29 10° N
Meteor 1-28 Rocket 4.0 09:28:39 38° NW 09:28:39 38° NW 09:31:11 10° NNW
IDEFIX/ARIANE 42P 2.6 09:23:11 10° N 09:28:24 64° WNW 09:29:42 48° SW
OAO 3 Copernicus 4.5 09:29:39 49° SSW 09:30:28 55° SSE 09:35:24 10° E
COSMOS 2441 4.3 09:31:33 10° NNE 09:36:29 90° E 09:38:30 36° SSW
Cosmos 2322 Rocket 2.9 09:34:49 20° S 09:38:30 49° ESE 09:43:57 10° NNE
Lacrosse 4 Rocket 3.8 09:38:55 13° WNW 09:39:15 13° NW 09:41:12 10° NNW
Meteor 2-10 Rocket 4.0 09:36:03 10° N 09:41:41 66° E 09:47:03 10° SSE
CZ-2C R/B 4.5 09:39:59 10° NNE 09:43:37 32° E 09:47:05 11° SSE
SL-16 R/B 4.1 09:45:41 17° W 09:45:41 17° W 09:48:42 10° NW
Meteor 1-24 Rocket 4.0 09:43:45 36° WSW 09:45:24 46° W 09:50:38 10° N
ADEOS II 3.5 09:43:16 10° NNW 09:47:02 20° WNW 09:47:48 20° W
Cosmos 1190 Rocket 4.2 09:42:34 10° NNW 09:47:34 47° WSW 09:49:43 30° SSW
ARIANE 5 R/B 2.4 09:42:33 10° N 09:47:39 72° WNW 09:50:05 31° SSW
Cosmos 2263 Rocket 2.9 09:43:08 10° N 09:48:41 55° ENE 09:54:14 10° SE
IRS-P3 4.3 09:43:30 10° N 09:48:41 54° WNW 09:50:55 32° SW
NOSS 3-2 (A) 3.1 09:47:34 32° SSW 09:50:15 90° WNW 09:56:17 10° NNE
Cosmos 1726 Rocket 4.1 09:46:02 10° N 09:50:23 59° E 09:54:44 10° SSE
Cosmos 1606 Rocket 3.6 09:46:04 10° N 09:50:29 79° E 09:54:44 11° S
Cosmos 2228 2.9 09:47:54 10° N 09:52:12 79° W 09:55:08 20° S
Cosmos 2346 Rocket 4.4 09:49:08 17° S 09:53:57 89° W 10:00:02 10° N
CZ-4B R/B 3.7 09:53:00 10° N 09:57:54 52° WNW 10:00:27 27° SW
Cosmos 2360 Rocket 3.3 09:55:55 10° S 10:01:12 42° ESE 10:06:30 10° NE
ADEOS Rocket 4.0 09:59:24 20° SSW 10:03:57 39° W 10:11:03 10° NNW
USA 238 DEB 3.6 09:59:29 21° SSW 10:04:03 86° ESE 10:10:48 10° NNE
USA 238 3.6 09:59:34 21° SSW 10:04:09 85° ESE 10:10:54 10° NNE
CZ-4C R/B 4.5 10:05:32 27° WSW 10:05:52 27° W 10:09:28 10° NW
SWAS 4.5 10:04:02 28° SW 10:06:10 67° WNW 10:10:27 10° NNE
CZ-3B R/B 2.7 10:08:24 16° SSE 10:08:24 16° SSE 10:10:38 10° SE
Aureole 2 Rocket 1.7 10:07:37 10° NNW 10:10:15 56° WSW 10:11:05 35° SSW
Cosmos 405 3.7 10:07:58 10° NNW 10:11:06 31° W 10:11:42 29° WSW
Cosmos 676 Rocket 4.2 10:06:25 10° NNW 10:11:29 48° WSW 10:16:33 10° S
Cosmos 1513 Rocket 4.4 10:05:24 10° NNW 10:11:30 66° W 10:17:28 10° S
SAR-Lupe-3 4.5 10:10:13 10° N 10:13:48 77° WNW 10:16:19 19° SSW
CZ-2C R/B 3.0 10:15:54 11° S 10:15:54 11° S 10:16:06 10° S
BREEZE-M DEB (TANK) 4.0 10:02:17 10° NW 10:14:13 78° NE 10:17:40 10° SE
Atlas Centaur 2 2.9 10:11:03 20° SW 10:16:13 54° SSE 10:22:17 10° E
Cosmos 1464 Rocket 4.0 10:10:53 10° NNW 10:16:59 65° W 10:23:09 10° S
Cosmos 1980 Rocket 4.2 10:17:42 10° W 10:20:16 14° NW 10:23:02 10° NNW
ISS -2.2 10:17:48 10° NNW 10:21:00 39° NE 10:24:12 10° ESE
Cosmos 1626 Rocket 4.2 10:17:21 10° S 10:21:37 56° E 10:25:55 10° NNE
CENTAUR R/B 2.4 10:21:27 16° SW 10:25:55 73° WNW 10:32:29 10° NNE
Cosmos 2034 Rocket 4.0 10:20:59 10° N 10:27:19 78° W 10:33:34 10° S
Cosmos 1184 Rocket 3.3 10:27:00 10° S 10:30:07 58° E 10:33:16 10° NNE
Cosmos 2227 4.1 10:24:42 10° NNW 10:30:19 71° WSW 10:35:53 10° S
PAYLOAD A 4.0 10:27:09 10° N 10:31:43 53° WNW 10:36:16 10° SSW
Cosmos 1331 Rocket 4.0 10:27:26 12° SSW 10:32:11 63° WNW 10:37:19 10° N
ATLAS 2A CENTAUR R/B 3.1 10:32:54 14° SW 10:36:03 40° SSE 10:47:45 10° E
Aureole 1 Rocket 3.2 10:36:55 10° NNW 10:40:37 75° ENE 10:45:23 10° SSE
Cosmos 1346 Rocket 4.2 10:39:36 13° WSW 10:41:50 21° WNW 10:44:50 10° NNW
USA 234 4.2 10:37:32 10° ENE 10:43:42 43° SE 10:49:49 10° SSW
ASTEX 1 4.2 10:40:04 10° SSE 10:44:55 56° E 10:49:48 10° N
Cosmos 389 Rocket 2.6 10:41:34 10° NNW 10:44:56 49° W 10:48:15 10° S
FENGYUN 3A 3.7 10:41:15 10° N 10:46:38 75° WNW 10:51:59 10° SSW
CZ-2C R/B 3.0 10:42:41 10° N 10:47:31 42° WNW 10:52:23 10° SW
PSLV R/B 3.5 10:43:57 10° N 10:48:07 65° WNW 10:52:17 10° SSW
Cosmos 1455 2.9 10:47:56 10° NNW 10:51:24 33° W 10:54:52 10° SSW
ALOS 2.3 10:47:31 10° N 10:52:09 66° WNW 10:56:45 10° SSW
SEDSat Delta rocket 3.5 10:48:21 10° WSW 10:53:34 57° S 10:58:07 10° E
OAO 2 Rocket 3.6 10:48:51 10° W 10:54:11 78° N 10:59:31 10° E
Cosmos 2333 Rocket 3.1 10:48:47 10° S 10:54:21 53° ESE 10:59:57 10° NNE
SL-16 R/B 3.4 10:50:45 10° WSW 10:55:24 26° WNW 11:00:05 10° N
Cosmos 1703 4.1 10:52:56 10° SW 10:56:22 30° W 10:59:50 10° NNW
Cosmos 1328 4.0 10:52:31 10° SSW 10:56:26 53° W 11:00:22 10° N
ATLAS 3B R/B 4.5 10:55:48 10° SSE 11:01:10 28° ESE 11:06:36 10° NE
Cosmos 1850 Rocket 4.4 10:57:10 10° NNW 11:02:14 44° WSW 11:07:15 10° S
